Year,Month,Day,Hour,Minute,Value (Times are PST for temperature in C)
2020,03,26,00,00,3.50
2020,03,26,00,01,3.50
2020,03,26,00,02,3.50
2020,03,26,00,03,3.50
2020,03,26,00,04,3.50
2020,03,26,00,05,3.50
2020,03,26,00,06,3.50
2020,03,26,00,07,3.50
2020,03,26,00,08,3.50
2020,03,26,00,09,3.50
2020,03,26,00,10,3.40
2020,03,26,00,11,3.40
2020,03,26,00,12,3.40
2020,03,26,00,13,3.40
2020,03,26,00,14,3.40
2020,03,26,00,15,3.40
2020,03,26,00,16,3.40
2020,03,26,00,17,3.40
2020,03,26,00,18,3.40
2020,03,26,00,19,3.40
2020,03,26,00,20,3.40
2020,03,26,00,21,3.40
2020,03,26,00,22,3.40
2020,03,26,00,23,3.30
2020,03,26,00,24,3.30
2020,03,26,00,25,3.30
2020,03,26,00,26,3.30
2020,03,26,00,27,3.30
2020,03,26,00,28,3.30
2020,03,26,00,29,3.30
2020,03,26,00,30,3.30
2020,03,26,00,31,3.30
2020,03,26,00,32,3.30
2020,03,26,00,33,3.30
2020,03,26,00,34,3.30
2020,03,26,00,35,3.30
2020,03,26,00,36,3.30
2020,03,26,00,37,3.30
2020,03,26,00,38,3.30
2020,03,26,00,39,3.20
2020,03,26,00,40,3.20
2020,03,26,00,41,3.20
2020,03,26,00,42,3.20
2020,03,26,00,43,3.20
2020,03,26,00,44,3.20
2020,03,26,00,45,3.20
2020,03,26,00,46,3.20
2020,03,26,00,47,3.10
2020,03,26,00,48,3.10
2020,03,26,00,49,3.10
2020,03,26,00,50,3.10
2020,03,26,00,51,3.10
2020,03,26,00,52,3.10
2020,03,26,00,53,3.10
2020,03,26,00,54,3.10
2020,03,26,00,55,3.10
2020,03,26,00,56,3.10
2020,03,26,00,57,3.10
2020,03,26,00,58,3.10
2020,03,26,00,59,3.10
2020,03,26,01,00,3.10
2020,03,26,01,01,3.10
2020,03,26,01,02,3.10
2020,03,26,01,03,3.10
2020,03,26,01,04,3.10
2020,03,26,01,05,3.10
2020,03,26,01,06,3.10
2020,03,26,01,07,3.10
2020,03,26,01,08,3.10
2020,03,26,01,09,3.10
2020,03,26,01,10,3.10
2020,03,26,01,11,3.10
2020,03,26,01,12,3.10
2020,03,26,01,13,3.00
2020,03,26,01,14,3.00
2020,03,26,01,15,3.00
2020,03,26,01,16,3.00
2020,03,26,01,17,3.00
2020,03,26,01,18,3.10
2020,03,26,01,19,3.10
2020,03,26,01,20,3.10
2020,03,26,01,21,3.10
2020,03,26,01,22,3.10
2020,03,26,01,23,3.10
2020,03,26,01,24,3.10
2020,03,26,01,25,3.10
2020,03,26,01,26,3.10
2020,03,26,01,27,3.10
2020,03,26,01,28,3.10
2020,03,26,01,29,3.10
2020,03,26,01,30,3.10
2020,03,26,01,31,3.10
2020,03,26,01,32,3.00
2020,03,26,01,33,3.00
2020,03,26,01,34,3.00
2020,03,26,01,35,3.00
2020,03,26,01,36,2.90
2020,03,26,01,37,2.90
2020,03,26,01,38,2.90
2020,03,26,01,39,2.90
2020,03,26,01,40,2.90
2020,03,26,01,41,2.90
2020,03,26,01,42,2.90
2020,03,26,01,43,2.90
2020,03,26,01,44,2.80
2020,03,26,01,45,2.80
2020,03,26,01,46,2.80
2020,03,26,01,47,2.80
2020,03,26,01,48,2.80
2020,03,26,01,49,2.80
2020,03,26,01,50,2.80
2020,03,26,01,51,2.80
2020,03,26,01,52,2.80
2020,03,26,01,53,2.80
2020,03,26,01,54,2.80
2020,03,26,01,55,2.80
2020,03,26,01,56,2.80
2020,03,26,01,57,2.70
2020,03,26,01,58,2.70
2020,03,26,01,59,2.70
2020,03,26,02,00,2.70
2020,03,26,02,01,2.70
2020,03,26,02,02,2.70
2020,03,26,02,03,2.70
2020,03,26,02,04,2.70
2020,03,26,02,05,2.70
2020,03,26,02,06,2.70
2020,03,26,02,07,2.70
2020,03,26,02,08,2.60
2020,03,26,02,09,2.60
2020,03,26,02,10,2.60
2020,03,26,02,11,2.60
2020,03,26,02,12,2.60
2020,03,26,02,13,2.60
2020,03,26,02,14,2.60
2020,03,26,02,15,2.60
2020,03,26,02,16,2.60
2020,03,26,02,17,2.60
2020,03,26,02,18,2.60
2020,03,26,02,19,2.60
2020,03,26,02,20,2.60
2020,03,26,02,21,2.60
2020,03,26,02,22,2.60
2020,03,26,02,23,2.60
2020,03,26,02,24,2.60
2020,03,26,02,25,2.60
2020,03,26,02,26,2.60
2020,03,26,02,27,2.60
2020,03,26,02,28,2.60
2020,03,26,02,29,2.60
2020,03,26,02,30,2.60
2020,03,26,02,31,2.60
2020,03,26,02,32,2.70
2020,03,26,02,33,2.70
2020,03,26,02,34,2.70
2020,03,26,02,35,2.70
2020,03,26,02,36,2.70
2020,03,26,02,37,2.70
2020,03,26,02,38,2.70
2020,03,26,02,39,2.70
2020,03,26,02,40,2.70
2020,03,26,02,41,2.70
2020,03,26,02,42,2.70
2020,03,26,02,43,2.70
2020,03,26,02,44,2.70
2020,03,26,02,45,2.70
2020,03,26,02,46,2.70
2020,03,26,02,47,2.70
2020,03,26,02,48,2.70
2020,03,26,02,49,2.70
2020,03,26,02,50,2.70
2020,03,26,02,51,2.70
2020,03,26,02,52,2.70
2020,03,26,02,53,2.70
2020,03,26,02,54,2.60
2020,03,26,02,55,2.60
2020,03,26,02,56,2.60
2020,03,26,02,57,2.60
2020,03,26,02,58,2.60
2020,03,26,02,59,2.60
2020,03,26,03,00,2.50
2020,03,26,03,01,2.60
2020,03,26,03,02,2.60
2020,03,26,03,03,2.60
2020,03,26,03,04,2.50
2020,03,26,03,05,2.50
2020,03,26,03,06,2.50
2020,03,26,03,07,2.50
2020,03,26,03,08,2.50
2020,03,26,03,09,2.50
2020,03,26,03,10,2.40
2020,03,26,03,11,2.40
2020,03,26,03,12,2.40
2020,03,26,03,13,2.40
2020,03,26,03,14,2.30
2020,03,26,03,15,2.30
2020,03,26,03,16,2.30
2020,03,26,03,17,2.30
2020,03,26,03,18,2.30
2020,03,26,03,19,2.20
2020,03,26,03,20,2.20
2020,03,26,03,21,2.20
2020,03,26,03,22,2.20
2020,03,26,03,23,2.20
2020,03,26,03,24,2.20
2020,03,26,03,25,2.20
2020,03,26,03,26,2.20
2020,03,26,03,27,2.10
2020,03,26,03,28,2.10
2020,03,26,03,29,2.10
2020,03,26,03,30,2.10
2020,03,26,03,31,2.10
2020,03,26,03,32,2.10
2020,03,26,03,33,2.00
2020,03,26,03,34,2.00
2020,03,26,03,35,2.00
2020,03,26,03,36,2.00
2020,03,26,03,37,2.00
2020,03,26,03,38,1.90
2020,03,26,03,39,1.90
2020,03,26,03,40,1.90
2020,03,26,03,41,1.90
2020,03,26,03,42,1.90
2020,03,26,03,43,1.90
2020,03,26,03,44,1.90
2020,03,26,03,45,1.80
2020,03,26,03,46,1.80
2020,03,26,03,47,1.80
2020,03,26,03,48,1.80
2020,03,26,03,49,1.80
2020,03,26,03,50,1.80
2020,03,26,03,51,1.70
2020,03,26,03,52,1.70
2020,03,26,03,53,1.70
2020,03,26,03,54,1.70
2020,03,26,03,55,1.70
2020,03,26,03,56,1.70
2020,03,26,03,57,1.70
2020,03,26,03,58,1.70
2020,03,26,03,59,1.60
2020,03,26,04,00,1.60
2020,03,26,04,01,1.60
2020,03,26,04,02,1.60
2020,03,26,04,03,1.60
2020,03,26,04,04,1.60
2020,03,26,04,05,1.60
2020,03,26,04,06,1.60
2020,03,26,04,07,1.60
2020,03,26,04,08,1.50
2020,03,26,04,09,1.50
2020,03,26,04,10,1.50
2020,03,26,04,11,1.50
2020,03,26,04,12,1.50
2020,03,26,04,13,1.50
2020,03,26,04,14,1.50
2020,03,26,04,15,1.50
2020,03,26,04,16,1.40
2020,03,26,04,17,1.40
2020,03,26,04,18,1.40
2020,03,26,04,19,1.40
2020,03,26,04,20,1.40
2020,03,26,04,21,1.40
2020,03,26,04,22,1.40
2020,03,26,04,23,1.40
2020,03,26,04,24,1.40
2020,03,26,04,25,1.40
2020,03,26,04,26,1.40
2020,03,26,04,27,1.30
2020,03,26,04,28,1.40
2020,03,26,04,29,1.40
2020,03,26,04,30,1.40
2020,03,26,04,31,1.40
2020,03,26,04,32,1.40
2020,03,26,04,33,1.40
2020,03,26,04,34,1.40
2020,03,26,04,35,1.40
2020,03,26,04,36,1.40
2020,03,26,04,37,1.40
2020,03,26,04,38,1.40
2020,03,26,04,39,1.50
2020,03,26,04,40,1.50
2020,03,26,04,41,1.50
2020,03,26,04,42,1.50
2020,03,26,04,43,1.60
2020,03,26,04,44,1.60
2020,03,26,04,45,1.60
2020,03,26,04,46,1.60
2020,03,26,04,47,1.60
2020,03,26,04,48,1.70
2020,03,26,04,49,1.70
2020,03,26,04,50,1.80
2020,03,26,04,51,1.80
2020,03,26,04,52,1.80
2020,03,26,04,53,1.80
2020,03,26,04,54,1.80
2020,03,26,04,55,1.80
2020,03,26,04,56,1.90
2020,03,26,04,57,1.90
2020,03,26,04,58,1.90
2020,03,26,04,59,1.90
2020,03,26,05,00,1.90
2020,03,26,05,01,1.90
2020,03,26,05,02,1.90
2020,03,26,05,03,1.90
2020,03,26,05,04,1.90
2020,03,26,05,05,2.00
2020,03,26,05,06,2.00
2020,03,26,05,07,1.90
2020,03,26,05,08,2.00
2020,03,26,05,09,2.00
2020,03,26,05,10,2.00
2020,03,26,05,11,2.00
2020,03,26,05,12,2.00
2020,03,26,05,13,2.00
2020,03,26,05,14,2.00
2020,03,26,05,15,2.00
2020,03,26,05,16,2.00
2020,03,26,05,17,2.10
2020,03,26,05,18,2.10
2020,03,26,05,19,2.10
2020,03,26,05,20,2.10
2020,03,26,05,21,2.10
2020,03,26,05,22,2.10
2020,03,26,05,23,2.10
2020,03,26,05,24,2.10
2020,03,26,05,25,2.10
2020,03,26,05,26,2.10
2020,03,26,05,27,2.20
2020,03,26,05,28,2.20
2020,03,26,05,29,2.20
2020,03,26,05,30,2.20
2020,03,26,05,31,2.30
2020,03,26,05,32,2.30
2020,03,26,05,33,2.30
2020,03,26,05,34,2.30
2020,03,26,05,35,2.20
2020,03,26,05,36,2.20
2020,03,26,05,37,2.20
2020,03,26,05,38,2.20
2020,03,26,05,39,2.20
2020,03,26,05,40,2.20
2020,03,26,05,41,2.20
2020,03,26,05,42,2.10
2020,03,26,05,43,2.10
2020,03,26,05,44,2.10
2020,03,26,05,45,2.10
2020,03,26,05,46,2.10
2020,03,26,05,47,2.10
2020,03,26,05,48,2.10
2020,03,26,05,49,2.10
2020,03,26,05,50,2.10
2020,03,26,05,51,2.10
2020,03,26,05,52,2.10
2020,03,26,05,53,2.10
2020,03,26,05,54,2.00
2020,03,26,05,55,2.00
2020,03,26,05,56,1.90
2020,03,26,05,57,1.90
2020,03,26,05,58,1.90
2020,03,26,05,59,1.90
2020,03,26,06,00,1.90
2020,03,26,06,01,1.90
2020,03,26,06,02,1.80
2020,03,26,06,03,1.80
2020,03,26,06,04,1.80
2020,03,26,06,05,1.90
2020,03,26,06,06,1.90
2020,03,26,06,07,1.90
2020,03,26,06,08,1.90
2020,03,26,06,09,1.90
2020,03,26,06,10,1.90
2020,03,26,06,11,1.90
2020,03,26,06,12,1.90
2020,03,26,06,13,1.90
2020,03,26,06,14,1.90
2020,03,26,06,15,1.80
2020,03,26,06,16,1.90
2020,03,26,06,17,1.80
2020,03,26,06,18,1.80
2020,03,26,06,19,1.80
2020,03,26,06,20,1.80
2020,03,26,06,21,1.80
2020,03,26,06,22,1.80
2020,03,26,06,23,1.80
2020,03,26,06,24,1.80
2020,03,26,06,25,1.80
2020,03,26,06,26,1.80
2020,03,26,06,27,1.80
2020,03,26,06,28,1.80
2020,03,26,06,29,1.80
2020,03,26,06,30,1.80
2020,03,26,06,31,1.80
2020,03,26,06,32,1.80
2020,03,26,06,33,1.80
2020,03,26,06,34,1.80
2020,03,26,06,35,1.80
2020,03,26,06,36,1.90
2020,03,26,06,37,1.90
2020,03,26,06,38,1.90
2020,03,26,06,39,2.00
2020,03,26,06,40,2.00
2020,03,26,06,41,2.00
2020,03,26,06,42,2.00
2020,03,26,06,43,2.00
2020,03,26,06,44,2.10
2020,03,26,06,45,2.10
2020,03,26,06,46,2.10
2020,03,26,06,47,2.10
2020,03,26,06,48,2.10
2020,03,26,06,49,2.10
2020,03,26,06,50,2.10
2020,03,26,06,51,2.10
2020,03,26,06,52,2.10
2020,03,26,06,53,2.10
2020,03,26,06,54,2.10
2020,03,26,06,55,2.10
2020,03,26,06,56,2.10
2020,03,26,06,57,2.00
2020,03,26,06,58,2.00
2020,03,26,06,59,2.00
2020,03,26,07,00,2.00
2020,03,26,07,01,2.00
2020,03,26,07,02,2.00
2020,03,26,07,03,2.00
2020,03,26,07,04,2.00
2020,03,26,07,05,2.00
2020,03,26,07,06,2.00
2020,03,26,07,07,2.00
2020,03,26,07,08,2.10
2020,03,26,07,09,2.10
2020,03,26,07,10,2.10
2020,03,26,07,11,2.10
2020,03,26,07,12,2.10
2020,03,26,07,13,2.00
2020,03,26,07,14,2.10
2020,03,26,07,15,2.00
2020,03,26,07,16,2.00
2020,03,26,07,17,2.00
2020,03,26,07,18,2.00
2020,03,26,07,19,2.00
2020,03,26,07,20,2.00
2020,03,26,07,21,2.00
2020,03,26,07,22,2.00
2020,03,26,07,23,2.00
2020,03,26,07,24,2.00
2020,03,26,07,25,2.00
2020,03,26,07,26,2.00
2020,03,26,07,27,2.00
2020,03,26,07,28,2.00
2020,03,26,07,29,2.00
2020,03,26,07,30,2.00
2020,03,26,07,31,2.00
2020,03,26,07,32,2.00
2020,03,26,07,33,2.00
2020,03,26,07,34,2.00
2020,03,26,07,35,2.00
2020,03,26,07,36,2.00
2020,03,26,07,37,2.00
2020,03,26,07,38,2.10
2020,03,26,07,39,2.10
2020,03,26,07,40,2.10
2020,03,26,07,41,2.10
2020,03,26,07,42,2.10
2020,03,26,07,43,2.10
2020,03,26,07,44,2.10
2020,03,26,07,45,2.10
2020,03,26,07,46,2.10
2020,03,26,07,47,2.10
2020,03,26,07,48,2.10
2020,03,26,07,49,2.10
2020,03,26,07,50,2.10
2020,03,26,07,51,2.10
2020,03,26,07,52,2.10
2020,03,26,07,53,2.20
2020,03,26,07,54,2.20
2020,03,26,07,55,2.20
2020,03,26,07,56,2.20
2020,03,26,07,57,2.20
2020,03,26,07,58,2.30
2020,03,26,07,59,2.30
2020,03,26,08,00,2.30
2020,03,26,08,01,2.40
2020,03,26,08,02,2.40
2020,03,26,08,03,2.40
2020,03,26,08,04,2.40
2020,03,26,08,05,2.40
2020,03,26,08,06,2.50
2020,03,26,08,07,2.50
2020,03,26,08,08,2.50
2020,03,26,08,09,2.60
2020,03,26,08,10,2.60
2020,03,26,08,11,2.60
2020,03,26,08,12,2.60
2020,03,26,08,13,2.70
2020,03,26,08,14,2.70
2020,03,26,08,15,2.70
2020,03,26,08,16,2.70
2020,03,26,08,17,2.70
2020,03,26,08,18,2.70
2020,03,26,08,19,2.80
2020,03,26,08,20,2.80
2020,03,26,08,21,2.80
2020,03,26,08,22,2.90
2020,03,26,08,23,2.90
2020,03,26,08,24,3.00
2020,03,26,08,25,3.00
2020,03,26,08,26,3.00
2020,03,26,08,27,3.10
2020,03,26,08,28,3.10
2020,03,26,08,29,3.20
2020,03,26,08,30,3.20
2020,03,26,08,31,3.30
2020,03,26,08,32,3.30
2020,03,26,08,33,3.40
2020,03,26,08,34,3.40
2020,03,26,08,35,3.50
2020,03,26,08,36,3.60
2020,03,26,08,37,3.60
2020,03,26,08,38,3.70
2020,03,26,08,39,3.70
2020,03,26,08,40,3.70
2020,03,26,08,41,3.80
2020,03,26,08,42,3.80
2020,03,26,08,43,3.90
2020,03,26,08,44,3.90
2020,03,26,08,45,3.90
2020,03,26,08,46,4.00
2020,03,26,08,47,4.00
2020,03,26,08,48,4.10
2020,03,26,08,49,4.10
2020,03,26,08,50,4.20
2020,03,26,08,51,4.20
2020,03,26,08,52,4.30
2020,03,26,08,53,4.30
2020,03,26,08,54,4.40
2020,03,26,08,55,4.40
2020,03,26,08,56,4.50
2020,03,26,08,57,4.50
2020,03,26,08,58,4.60
2020,03,26,08,59,4.60
2020,03,26,09,00,4.60
2020,03,26,09,01,4.60
2020,03,26,09,02,4.70
2020,03,26,09,03,4.70
2020,03,26,09,04,4.80
2020,03,26,09,05,4.80
2020,03,26,09,06,4.80
2020,03,26,09,07,4.90
2020,03,26,09,08,4.90
2020,03,26,09,09,4.90
2020,03,26,09,10,5.00
2020,03,26,09,11,5.00
2020,03,26,09,12,5.10
2020,03,26,09,13,5.10
2020,03,26,09,14,5.20
2020,03,26,09,15,5.20
2020,03,26,09,16,5.20
2020,03,26,09,17,5.30
2020,03,26,09,18,5.30
2020,03,26,09,19,5.30
2020,03,26,09,20,5.40
2020,03,26,09,21,5.40
2020,03,26,09,22,5.40
2020,03,26,09,23,5.50
2020,03,26,09,24,5.50
2020,03,26,09,25,5.60
2020,03,26,09,26,5.60
2020,03,26,09,27,5.70
2020,03,26,09,28,5.70
2020,03,26,09,29,5.80
2020,03,26,09,30,5.80
2020,03,26,09,31,5.90
2020,03,26,09,32,5.90
2020,03,26,09,33,6.00
2020,03,26,09,34,6.00
2020,03,26,09,35,6.10
2020,03,26,09,36,6.10
2020,03,26,09,37,6.20
2020,03,26,09,38,6.20
2020,03,26,09,39,6.30
2020,03,26,09,40,6.30
2020,03,26,09,41,6.30
2020,03,26,09,42,6.40
2020,03,26,09,43,6.50
2020,03,26,09,44,6.50
2020,03,26,09,45,6.60
2020,03,26,09,46,6.60
2020,03,26,09,47,6.70
2020,03,26,09,48,6.80
2020,03,26,09,49,6.80
2020,03,26,09,50,6.90
2020,03,26,09,51,7.00
2020,03,26,09,52,7.00
2020,03,26,09,53,7.10
2020,03,26,09,54,7.20
2020,03,26,09,55,7.20
2020,03,26,09,56,7.20
2020,03,26,09,57,7.30
2020,03,26,09,58,7.30
2020,03,26,09,59,7.30
2020,03,26,10,00,7.30
2020,03,26,10,01,7.30
2020,03,26,10,02,7.30
2020,03,26,10,03,7.30
2020,03,26,10,04,7.30
2020,03,26,10,05,7.40
2020,03,26,10,06,7.40
2020,03,26,10,07,7.40
2020,03,26,10,08,7.40
2020,03,26,10,09,7.50
2020,03,26,10,10,7.50
2020,03,26,10,11,7.60
2020,03,26,10,12,7.70
2020,03,26,10,13,7.70
2020,03,26,10,14,7.70
2020,03,26,10,15,7.70
2020,03,26,10,16,7.80
2020,03,26,10,17,7.80
2020,03,26,10,18,7.80
2020,03,26,10,19,7.80
2020,03,26,10,20,7.80
2020,03,26,10,21,7.90
2020,03,26,10,22,7.90
2020,03,26,10,23,8.00
2020,03,26,10,24,8.00
2020,03,26,10,25,8.00
2020,03,26,10,26,8.10
2020,03,26,10,27,8.10
2020,03,26,10,28,8.10
2020,03,26,10,29,8.10
2020,03,26,10,30,8.10
2020,03,26,10,31,8.10
2020,03,26,10,32,8.10
2020,03,26,10,33,8.10
2020,03,26,10,34,8.10
2020,03,26,10,35,8.10
2020,03,26,10,36,8.10
2020,03,26,10,37,8.10
2020,03,26,10,38,8.10
2020,03,26,10,39,8.10
2020,03,26,10,40,8.10
2020,03,26,10,41,8.10
2020,03,26,10,42,8.10
2020,03,26,10,43,8.10
2020,03,26,10,44,8.10
2020,03,26,10,45,8.10
2020,03,26,10,46,8.10
2020,03,26,10,47,8.10
2020,03,26,10,48,8.10
2020,03,26,10,49,8.10
2020,03,26,10,50,8.10
2020,03,26,10,51,8.10
2020,03,26,10,52,8.10
2020,03,26,10,53,8.10
2020,03,26,10,54,8.10
2020,03,26,10,55,8.10
2020,03,26,10,56,8.10
2020,03,26,10,57,8.20
2020,03,26,10,58,8.20
2020,03,26,10,59,8.20
2020,03,26,11,00,8.30
2020,03,26,11,01,8.30
2020,03,26,11,02,8.30
2020,03,26,11,03,8.30
2020,03,26,11,04,8.40
2020,03,26,11,05,8.40
2020,03,26,11,06,8.40
2020,03,26,11,07,8.50
2020,03,26,11,08,8.60
2020,03,26,11,09,8.60
2020,03,26,11,10,8.60
2020,03,26,11,11,8.60
2020,03,26,11,12,8.70
2020,03,26,11,13,8.70
2020,03,26,11,14,8.80
2020,03,26,11,15,8.80
2020,03,26,11,16,8.80
2020,03,26,11,17,8.90
2020,03,26,11,18,8.90
2020,03,26,11,19,8.90
2020,03,26,11,20,8.90
2020,03,26,11,21,9.00
2020,03,26,11,22,9.00
2020,03,26,11,23,9.00
2020,03,26,11,24,9.10
2020,03,26,11,25,9.10
2020,03,26,11,26,9.20
2020,03,26,11,27,9.20
2020,03,26,11,28,9.30
2020,03,26,11,29,9.30
2020,03,26,11,30,9.40
2020,03,26,11,31,9.40
2020,03,26,11,32,9.50
2020,03,26,11,33,9.50
2020,03,26,11,34,9.60
2020,03,26,11,35,9.60
2020,03,26,11,36,9.70
2020,03,26,11,37,9.70
2020,03,26,11,38,9.70
2020,03,26,11,39,9.70
2020,03,26,11,40,9.80
2020,03,26,11,41,9.80
2020,03,26,11,42,9.80
2020,03,26,11,43,9.80
2020,03,26,11,44,9.80
2020,03,26,11,45,9.80
2020,03,26,11,46,9.80
2020,03,26,11,47,9.80
2020,03,26,11,48,9.70
2020,03,26,11,49,9.80
2020,03,26,11,50,9.80
2020,03,26,11,51,9.80
2020,03,26,11,52,9.70
2020,03,26,11,53,9.80
2020,03,26,11,54,9.80
2020,03,26,11,55,9.70
2020,03,26,11,56,9.70
2020,03,26,11,57,9.50
2020,03,26,11,58,9.40
2020,03,26,11,59,9.40
2020,03,26,12,00,9.30
2020,03,26,12,01,9.30
2020,03,26,12,02,9.20
2020,03,26,12,03,9.10
2020,03,26,12,04,9.00
2020,03,26,12,05,8.90
2020,03,26,12,06,8.80
2020,03,26,12,07,8.70
2020,03,26,12,08,8.70
2020,03,26,12,09,8.70
2020,03,26,12,10,8.70
2020,03,26,12,11,8.70
2020,03,26,12,12,8.70
2020,03,26,12,13,8.70
2020,03,26,12,14,8.70
2020,03,26,12,15,8.70
2020,03,26,12,16,8.70
2020,03,26,12,17,8.70
2020,03,26,12,18,8.70
2020,03,26,12,19,8.70
2020,03,26,12,20,8.60
2020,03,26,12,21,8.60
2020,03,26,12,22,8.60
2020,03,26,12,23,8.60
2020,03,26,12,24,8.60
2020,03,26,12,25,8.60
2020,03,26,12,26,8.70
2020,03,26,12,27,8.70
2020,03,26,12,28,8.70
2020,03,26,12,29,8.70
2020,03,26,12,30,8.80
2020,03,26,12,31,8.80
2020,03,26,12,32,8.80
2020,03,26,12,33,8.90
2020,03,26,12,34,8.90
2020,03,26,12,35,8.90
2020,03,26,12,36,9.00
2020,03,26,12,37,9.00
2020,03,26,12,38,9.00
2020,03,26,12,39,9.10
2020,03,26,12,40,9.10
2020,03,26,12,41,9.20
2020,03,26,12,42,9.20
2020,03,26,12,43,9.20
2020,03,26,12,44,9.30
2020,03,26,12,45,9.30
2020,03,26,12,46,9.30
2020,03,26,12,47,9.30
2020,03,26,12,48,9.30
2020,03,26,12,49,9.30
2020,03,26,12,50,9.30
2020,03,26,12,51,9.30
2020,03,26,12,52,9.30
2020,03,26,12,53,9.30
2020,03,26,12,54,9.40
2020,03,26,12,55,9.30
2020,03,26,12,56,9.30
2020,03,26,12,57,9.30
2020,03,26,12,58,9.30
2020,03,26,12,59,9.20
2020,03,26,13,00,9.20
2020,03,26,13,01,9.20
2020,03,26,13,02,9.10
2020,03,26,13,03,9.10
2020,03,26,13,04,9.00
2020,03,26,13,05,9.00
2020,03,26,13,06,8.90
2020,03,26,13,07,8.90
2020,03,26,13,08,8.80
2020,03,26,13,09,8.80
2020,03,26,13,10,8.70
2020,03,26,13,11,8.70
2020,03,26,13,12,8.70
2020,03,26,13,13,8.60
2020,03,26,13,14,8.60
2020,03,26,13,15,8.60
2020,03,26,13,16,8.60
2020,03,26,13,17,8.60
2020,03,26,13,18,8.60
2020,03,26,13,19,8.60
2020,03,26,13,20,8.60
2020,03,26,13,21,8.60
2020,03,26,13,22,8.60
2020,03,26,13,23,8.70
2020,03,26,13,24,8.70
2020,03,26,13,25,8.70
2020,03,26,13,26,8.70
2020,03,26,13,27,8.80
2020,03,26,13,28,8.80
2020,03,26,13,29,8.80
2020,03,26,13,30,8.80
2020,03,26,13,31,8.80
2020,03,26,13,32,8.80
2020,03,26,13,33,8.80
2020,03,26,13,34,8.70
2020,03,26,13,35,8.70
2020,03,26,13,36,8.70
2020,03,26,13,37,8.70
2020,03,26,13,38,8.70
2020,03,26,13,39,8.70
2020,03,26,13,40,8.70
2020,03,26,13,41,8.70
2020,03,26,13,42,8.70
2020,03,26,13,43,8.70
2020,03,26,13,44,8.70
2020,03,26,13,45,8.70
2020,03,26,13,46,8.70
2020,03,26,13,47,8.70
2020,03,26,13,48,8.70
2020,03,26,13,49,8.80
2020,03,26,13,50,8.80
2020,03,26,13,51,8.80
2020,03,26,13,52,8.80
2020,03,26,13,53,8.80
2020,03,26,13,54,8.80
2020,03,26,13,55,8.80
2020,03,26,13,56,8.90
2020,03,26,13,57,8.90
2020,03,26,13,58,8.90
2020,03,26,13,59,8.90
2020,03,26,14,00,8.90
2020,03,26,14,01,8.90
2020,03,26,14,02,8.90
2020,03,26,14,03,8.90
2020,03,26,14,04,8.90
2020,03,26,14,05,8.90
2020,03,26,14,06,8.90
2020,03,26,14,07,8.90
2020,03,26,14,08,8.90
2020,03,26,14,09,9.00
2020,03,26,14,10,9.00
2020,03,26,14,11,9.00
2020,03,26,14,12,9.00
2020,03,26,14,13,9.00
2020,03,26,14,14,9.10
2020,03,26,14,15,9.10
2020,03,26,14,16,9.10
2020,03,26,14,17,9.10
2020,03,26,14,18,9.20
2020,03,26,14,19,9.20
2020,03,26,14,20,9.30
2020,03,26,14,21,9.30
2020,03,26,14,22,9.30
2020,03,26,14,23,9.30
2020,03,26,14,24,9.40
2020,03,26,14,25,9.40
2020,03,26,14,26,9.40
2020,03,26,14,27,9.40
2020,03,26,14,28,9.40
2020,03,26,14,29,9.40
2020,03,26,14,30,9.40
2020,03,26,14,31,9.40
2020,03,26,14,32,9.40
2020,03,26,14,33,9.40
2020,03,26,14,34,9.40
2020,03,26,14,35,9.40
2020,03,26,14,36,9.40
2020,03,26,14,37,9.40
2020,03,26,14,38,9.40
2020,03,26,14,39,9.30
2020,03,26,14,40,9.30
2020,03,26,14,41,9.30
2020,03,26,14,42,9.30
2020,03,26,14,43,9.30
2020,03,26,14,44,9.30
2020,03,26,14,45,9.30
2020,03,26,14,46,9.30
2020,03,26,14,47,9.30
2020,03,26,14,48,9.30
2020,03,26,14,49,9.30
2020,03,26,14,50,9.30
2020,03,26,14,51,9.30
2020,03,26,14,52,9.30
2020,03,26,14,53,9.30
2020,03,26,14,54,9.30
2020,03,26,14,55,9.30
2020,03,26,14,56,9.30
2020,03,26,14,57,9.20
2020,03,26,14,58,9.20
2020,03,26,14,59,9.20
2020,03,26,15,00,9.20
2020,03,26,15,01,9.20
2020,03,26,15,02,9.20
2020,03,26,15,03,9.20
2020,03,26,15,04,9.10
2020,03,26,15,05,9.10
2020,03,26,15,06,9.10
2020,03,26,15,07,9.10
2020,03,26,15,08,9.10
2020,03,26,15,09,9.10
2020,03,26,15,10,9.10
2020,03,26,15,11,9.10
2020,03,26,15,12,9.00
2020,03,26,15,13,9.00
2020,03,26,15,14,9.00
2020,03,26,15,15,9.00
2020,03,26,15,16,8.90
2020,03,26,15,17,8.90
2020,03,26,15,18,8.90
2020,03,26,15,19,8.90
2020,03,26,15,20,8.90
2020,03,26,15,21,8.90
2020,03,26,15,22,8.80
2020,03,26,15,23,8.80
2020,03,26,15,24,8.80
2020,03,26,15,25,8.80
2020,03,26,15,26,8.80
2020,03,26,15,27,8.80
2020,03,26,15,28,8.80
2020,03,26,15,29,8.70
2020,03,26,15,30,8.80
2020,03,26,15,31,8.80
2020,03,26,15,32,8.80
2020,03,26,15,33,8.70
2020,03,26,15,34,8.70
2020,03,26,15,35,8.70
2020,03,26,15,36,8.70
2020,03,26,15,37,8.70
2020,03,26,15,38,8.70
2020,03,26,15,39,8.70
2020,03,26,15,40,8.70
2020,03,26,15,41,8.70
2020,03,26,15,42,8.70
2020,03,26,15,43,8.70
2020,03,26,15,44,8.70
2020,03,26,15,45,8.70
2020,03,26,15,46,8.70
2020,03,26,15,47,8.70
2020,03,26,15,48,8.70
2020,03,26,15,49,8.70
2020,03,26,15,50,8.70
2020,03,26,15,51,8.70
2020,03,26,15,52,8.70
2020,03,26,15,53,8.80
2020,03,26,15,54,8.80
2020,03,26,15,55,8.80
2020,03,26,15,56,8.80
2020,03,26,15,57,8.80
2020,03,26,15,58,8.80
2020,03,26,15,59,8.80
2020,03,26,16,00,8.80
2020,03,26,16,01,8.80
2020,03,26,16,02,8.80
2020,03,26,16,03,8.90
2020,03,26,16,04,8.80
2020,03,26,16,05,8.80
2020,03,26,16,06,8.90
2020,03,26,16,07,8.90
2020,03,26,16,08,8.90
2020,03,26,16,09,8.90
2020,03,26,16,10,8.90
2020,03,26,16,11,8.90
2020,03,26,16,12,8.90
2020,03,26,16,13,8.80
2020,03,26,16,14,8.80
2020,03,26,16,15,8.80
2020,03,26,16,16,8.80
2020,03,26,16,17,8.70
2020,03,26,16,18,8.70
2020,03,26,16,19,8.70
2020,03,26,16,20,8.70
2020,03,26,16,21,8.60
2020,03,26,16,22,8.60
2020,03,26,16,23,8.60
2020,03,26,16,24,8.60
2020,03,26,16,25,8.60
2020,03,26,16,26,8.60
2020,03,26,16,27,8.50
2020,03,26,16,28,8.50
2020,03,26,16,29,8.50
2020,03,26,16,30,8.50
2020,03,26,16,31,8.50
2020,03,26,16,32,8.50
2020,03,26,16,33,8.50
2020,03,26,16,34,8.50
2020,03,26,16,35,8.50
2020,03,26,16,36,8.40
2020,03,26,16,37,8.40
2020,03,26,16,38,8.50
2020,03,26,16,39,8.50
2020,03,26,16,40,8.50
2020,03,26,16,41,8.50
2020,03,26,16,42,8.50
2020,03,26,16,43,8.50
2020,03,26,16,44,8.40
2020,03,26,16,45,8.40
2020,03,26,16,46,8.40
2020,03,26,16,47,8.40
2020,03,26,16,48,8.40
2020,03,26,16,49,8.40
2020,03,26,16,50,8.40
2020,03,26,16,51,8.40
2020,03,26,16,52,8.40
2020,03,26,16,53,8.40
2020,03,26,16,54,8.40
2020,03,26,16,55,8.40
2020,03,26,16,56,8.40
2020,03,26,16,57,8.40
2020,03,26,16,58,8.40
2020,03,26,16,59,8.30
2020,03,26,17,00,8.30
2020,03,26,17,01,8.30
2020,03,26,17,02,8.30
2020,03,26,17,03,8.30
2020,03,26,17,04,8.30
2020,03,26,17,05,8.30
2020,03,26,17,06,8.30
2020,03,26,17,07,8.30
2020,03,26,17,08,8.30
2020,03,26,17,09,8.30
2020,03,26,17,10,8.30
2020,03,26,17,11,8.30
2020,03,26,17,12,8.20
2020,03,26,17,13,8.20
2020,03,26,17,14,8.20
2020,03,26,17,15,8.30
2020,03,26,17,16,8.20
2020,03,26,17,17,8.30
2020,03,26,17,18,8.30
2020,03,26,17,19,8.20
2020,03,26,17,20,8.20
2020,03,26,17,21,8.30
2020,03,26,17,22,8.30
2020,03,26,17,23,8.30
2020,03,26,17,24,8.30
2020,03,26,17,25,8.30
2020,03,26,17,26,8.30
2020,03,26,17,27,8.30
2020,03,26,17,28,8.30
2020,03,26,17,29,8.30
2020,03,26,17,30,8.30
2020,03,26,17,31,8.30
2020,03,26,17,32,8.30
2020,03,26,17,33,8.30
2020,03,26,17,34,8.30
2020,03,26,17,35,8.30
2020,03,26,17,36,8.30
2020,03,26,17,37,8.30
2020,03,26,17,38,8.30
2020,03,26,17,39,8.40
2020,03,26,17,40,8.40
2020,03,26,17,41,8.40
2020,03,26,17,42,8.40
2020,03,26,17,43,8.40
2020,03,26,17,44,8.40
2020,03,26,17,45,8.40
2020,03,26,17,46,8.40
2020,03,26,17,47,8.40
2020,03,26,17,48,8.40
2020,03,26,17,49,8.50
2020,03,26,17,50,8.50
2020,03,26,17,51,8.50
2020,03,26,17,52,8.50
2020,03,26,17,53,8.50
2020,03,26,17,54,8.50
2020,03,26,17,55,8.40
2020,03,26,17,56,8.40
2020,03,26,17,57,8.40
2020,03,26,17,58,8.40
2020,03,26,17,59,8.40
2020,03,26,18,00,8.40
2020,03,26,18,01,8.30
2020,03,26,18,02,8.30
2020,03,26,18,03,8.30
2020,03,26,18,04,8.30
2020,03,26,18,05,8.30
2020,03,26,18,06,8.30